Bedford, MA

12:22 AM EDT on October 18, 2019 (GMT -0400)
Hanscom

Weather History for KBED - September, 2019

Change the Weather History Date:

Tuesday, September 17, 2019

  Actual Average Record
Temperature  
Mean Temperature 60 °F -  
Max Temperature 73 °F 71 °F 87 °F (1991)
Min Temperature 46 °F 48 °F 34 °F (1960)
Degree Days  
Heating Degree Days 6    
Growing Degree Days 10 (Base 50)    
Moisture  
Dew Point 47 °F    
Average Humidity 64    
Maximum Humidity 83    
Minimum Humidity 41    
Precipitation  
Precipitation 0.00 in - - ()
Sea Level Pressure  
Sea Level Pressure 30.15 in    
Wind  
Wind Speed 5 mph ()    
Max Wind Speed 15 mph    
Max Gust Speed 21 mph    
Visibility 10.0 miles    
Events      
Averages and records for this station are not official NWS values.
T = Trace of Precipitation, MM = Missing Value Source: Averaged Metar Reports

Daily Weather History Graph

Daily Weather History Graph

Search for Another Location

Airport or City:

Astronomy

Sep. 17, 2019 Rise Set
Actual Time 6:26 AM EDT 6:51 PM EDT
Civil Twilight 5:58 AM EDT 7:19 PM EDT
Nautical Twilight 5:25 AM EDT 7:53 PM EDT
Astronomical Twilight 4:51 AM EDT 8:27 PM EDT
Moon 8:49 PM EDT (9/17) 9:31 AM EDT (9/17)
Length of Visible Light 13h 21m
Length of Day
12h 24m
Waning Gibbous, 89% of the Moon is Illuminated
Sep 17
Waning Gibbous
Sep 21
Last Quarter
Sep 28
New
Oct 5
First Quarter
Oct 13
Full

Hourly Weather History & Observations

Time (EDT) Temp. Dew Point Humidity Pressure Visibility Wind Dir Wind Speed Gust Speed Precip Events Conditions
12:51 AM 51.1 °F 45.0 °F 80% 30.11 in 10.0 mi WSW 3.5 mph - N/A   Clear
1:51 AM 50.0 °F 45.0 °F 83% 30.11 in 10.0 mi WSW 3.5 mph - N/A   Clear
2:51 AM 50.0 °F 45.0 °F 83% 30.11 in 10.0 mi WSW 3.5 mph - N/A   Clear
3:51 AM 48.0 °F 43.0 °F 83% 30.10 in 10.0 mi West 3.5 mph - N/A   Clear
4:51 AM 48.0 °F 43.0 °F 83% 30.10 in 10.0 mi WSW 3.5 mph - N/A   Clear
5:51 AM 46.9 °F 42.1 °F 83% 30.11 in 10.0 mi Calm Calm - N/A   Clear
6:51 AM 48.0 °F 42.1 °F 80% 30.13 in 10.0 mi West 4.6 mph - N/A   Clear
7:51 AM 57.9 °F 48.0 °F 70% 30.14 in 10.0 mi WNW 6.9 mph - N/A   Clear
8:51 AM 63.0 °F 48.0 °F 58% 30.15 in 10.0 mi NW 8.1 mph - N/A   Clear
9:51 AM 66.0 °F 46.0 °F 48% 30.16 in 10.0 mi NNW 15.0 mph - N/A   Clear
10:51 AM 69.1 °F 45.0 °F 42% 30.16 in 10.0 mi NNE 15.0 mph 20.7 mph N/A   Clear
11:51 AM 69.1 °F 46.0 °F 44% 30.17 in 10.0 mi NNE 11.5 mph - N/A   Mostly Cloudy
12:51 PM 71.1 °F 48.0 °F 44% 30.16 in 10.0 mi North 6.9 mph - N/A   Mostly Cloudy
1:51 PM 73.0 °F 48.0 °F 41% 30.16 in 10.0 mi NNE 10.4 mph - N/A   Mostly Cloudy
2:51 PM 72.0 °F 51.1 °F 48% 30.15 in 10.0 mi ENE 11.5 mph 17.3 mph N/A   Mostly Cloudy
3:51 PM 70.0 °F 51.1 °F 51% 30.15 in 10.0 mi ENE 9.2 mph - N/A   Mostly Cloudy
4:51 PM 69.1 °F 50.0 °F 51% 30.16 in 10.0 mi East 9.2 mph - N/A   Partly Cloudy
5:51 PM 66.9 °F 48.9 °F 52% 30.16 in 10.0 mi ENE 8.1 mph - N/A   Scattered Clouds
6:51 PM 64.9 °F 48.9 °F 56% 30.17 in 10.0 mi ENE 5.8 mph - N/A   Mostly Cloudy
7:51 PM 64.0 °F 48.9 °F 58% 30.19 in 10.0 mi ESE 5.8 mph - N/A   Overcast
8:51 PM 62.1 °F 50.0 °F 65% 30.20 in 10.0 mi Calm Calm - N/A   Overcast
9:51 PM 61.0 °F 52.0 °F 72% 30.21 in 10.0 mi Calm Calm - N/A   Overcast
10:51 PM 59.0 °F 52.0 °F 78% 30.22 in 10.0 mi Calm Calm - N/A   Overcast
11:51 PM 60.1 °F 52.0 °F 75% 30.23 in 10.0 mi North 3.5 mph - N/A   Overcast